Regional Weather Roundup
Issued by NWS

Home | Current Version | Previous Version | Graphics & Text | Print | Product List | Glossary On
Versions: 1 2 3 4 5 6 7 8 9 10 11 12 13 14 15 16 17 18 19 20 21 22 23 24 25 26 27 28 29 30 31 32 33 34 35 36 37 38 39 40 41 42 43 44 45 46 47 48 49 50
000
ASUS45 KCYS 090310
RWRWY

WYOMING REGIONAL WEATHER ROUNDUP
NATIONAL WEATHER SERVICE CHEYENNE WY
800 PM MST MON FEB 08 2016

NOTE:  "FAIR" INDICATES FEW OR NO CLOUDS BELOW 12,000 FEET
WITH NO SIGNIFICANT WEATHER AND/OR OBSTRUCTIONS TO VISIBILITY.

WYZ001-090400-
YELLOWSTONE NATIONAL PARK

CITY           SKY/WX    TMP DP  RH WIND       PRES   REMARKS
LK YELLOWSTONE   N/A     23  19  85 NW3       30.57R
W YELLOWSTONE  NOT AVBL

$$
WYZ002>013-054>058-071-098>099-090400-
NORTHERN WYOMING

CITY           SKY/WX    TMP DP  RH WIND       PRES   REMARKS
JACKSON        CLEAR     14  12  92 N10       30.57S WCI   1
CODY           FAIR      30  16  55 CALM      30.36F
GREYBULL       FAIR      32  22  66 E5        30.38S WCI  27
WORLAND        FAIR      28  22  78 CALM      30.37S
SHERIDAN       CLEAR     45  27  49 NW8       30.28F
BUFFALO        FAIR      45  26  47 N5        30.31S
GILLETTE       FAIR      35  27  72 W10       30.27F WCI  27
HULETT         CLOUDY    39  27  60 SW3       30.26F
NEWCASTLE      FAIR      32  21  64 NW12      30.25F WCI  23

$$
WYZ014>020-022>026-101>103-090400-
CENTRAL WYOMING

CITY           SKY/WX    TMP DP  RH WIND       PRES   REMARKS
BIG PINEY      FAIR      27  21  78 NE10G21   30.49F WCI  17
PINEDALE       FAIR      32  23  69 NW23G29   30.48R WCI  19
DUBOIS         FAIR      36  21  55 W30       30.43R WCI  22
LANDER         FAIR      26  19  74 NW8       30.39R WCI  18
RIVERTON       FAIR      28  19  69 CALM      30.40S
CASPER         FAIR      32  21  64 SW14      30.36S WCI  22
DOUGLAS        FAIR      34  25  69 NW10        N/A  WCI  26

$$
WYZ021-027>030-104>119-090400-
SOUTHERN WYOMING

CITY           SKY/WX    TMP DP  RH WIND       PRES   REMARKS
EVANSTON       FAIR      30  17  58 S5        30.57F WCI  25
FORT BRIDGER   CLEAR     30  23  74 W14       30.58R WCI  20
ROCK SPRINGS   FAIR      30  23  75 SW18      30.48R WCI  18
DIXON          FAIR      15  11  83 CALM      30.53S
RAWLINS        FAIR      30  18  60 W14       30.44F WCI  19
SARATOGA       FAIR      19  16  86 S6        30.46S WCI  11
LARAMIE        FAIR      29  19  66 NW14      30.36F WCI  18
CHEYENNE       FAIR      37  22  54 NW18G24   30.31F WCI  27
TORRINGTON     MOCLDY    38  26  62 NW10      30.29F WCI  31
PINE BLUFFS    FAIR      36  27  69 NW21      30.31F WCI  24

$$



USA.gov is the U.S. government's official web portal to all federal, state and local government web resources and services.